Location: Unspecified
(22.6800°N, 112.2000°E)
Time: 10:36:00
(UTC+08:00)

S-56A Canister/Altair - Pass Details

Date: 28 July 2021
Orbit: 632 x 2500 km, 38.9° (Epoch: 27 September)

Event Time Altitude Azimuth Distance (km) Brightness Sun altitude
Rises 17:21:37 0° 268° (W) 5,816 13.3 24.2°
Reaches altitude 10° 17:25:31 10° 274° (W) 4,964 13.6 23.3°
Maximum altitude 17:39:31 47° 344° (NNW) 3,080 11.2 20.1°
Drops below altitude 10° 17:53:02 10° 55° (NE) 4,781 11.2 17.1°
Sets 17:56:44 0° 61° (ENE) 5,592 11.5 16.3°
